Time,TemperatureF,DewpointF,PressureIn,WindDirection,WindDirectionDegrees,WindSpeedMPH,WindSpeedGustMPH,Humidity,HourlyPrecipIn,Conditions,Clouds,dailyrainin,SoftwareType,DateUTC
2013-04-17 00:02:00,57.5,53.7,30.04,NE,45,0.0,0.0,87,0.02,,,0.00,WUHU216HW,2013-04-17 04:02:00,
2013-04-17 00:07:00,57.5,53.7,30.05,NE,45,0.0,0.0,87,0.02,,,0.00,WUHU216HW,2013-04-17 04:07:00,
2013-04-17 00:12:00,57.5,53.7,30.05,NE,45,0.0,0.0,87,0.00,,,0.00,WUHU216HW,2013-04-17 04:12:00,
2013-04-17 00:17:00,57.5,53.7,30.04,NE,45,0.2,0.2,87,0.00,,,0.00,WUHU216HW,2013-04-17 04:17:00,
2013-04-17 00:22:00,57.5,53.7,30.04,NE,45,0.0,0.2,87,0.00,,,0.00,WUHU216HW,2013-04-17 04:22:00,
2013-04-17 00:27:00,57.3,53.8,30.04,NNE,23,0.0,0.2,88,0.00,,,0.00,WUHU216HW,2013-04-17 04:27:00,
2013-04-17 00:32:00,57.3,53.5,30.04,NNE,23,0.0,0.0,87,0.00,,,0.00,WUHU216HW,2013-04-17 04:32:00,
2013-04-17 00:37:00,57.3,53.8,30.04,NNE,23,0.0,0.0,88,0.00,,,0.00,WUHU216HW,2013-04-17 04:37:00,
2013-04-17 00:42:00,57.0,53.4,30.05,NNE,23,0.0,2.2,88,0.00,,,0.00,WUHU216HW,2013-04-17 04:42:00,
2013-04-17 00:47:00,57.0,53.4,30.05,NNE,23,0.0,2.2,88,0.00,,,0.00,WUHU216HW,2013-04-17 04:47:00,
2013-04-17 00:52:00,56.8,53.3,30.04,ESE,113,0.0,0.8,88,0.00,,,0.00,WUHU216HW,2013-04-17 04:52:00,
2013-04-17 00:57:00,56.8,53.3,30.03,ENE,68,2.4,2.4,88,0.00,,,0.00,WUHU216HW,2013-04-17 04:57:00,
2013-04-17 01:02:00,56.4,52.9,30.04,SE,135,0.0,2.4,88,0.00,,,0.00,WUHU216HW,2013-04-17 05:02:00,
2013-04-17 01:07:00,56.3,52.7,30.03,ESE,113,0.0,0.0,88,0.00,,,0.00,WUHU216HW,2013-04-17 05:07:00,
2013-04-17 01:12:00,56.3,52.7,30.03,ESE,113,0.0,0.0,88,0.00,,,0.00,WUHU216HW,2013-04-17 05:12:00,
2013-04-17 01:17:00,56.3,52.7,30.03,ENE,68,0.0,0.0,88,0.00,,,0.00,WUHU216HW,2013-04-17 05:17:00,
2013-04-17 01:22:00,56.1,52.5,30.03,ENE,68,0.0,0.0,88,0.00,,,0.00,WUHU216HW,2013-04-17 05:22:00,
2013-04-17 01:27:00,56.3,52.7,30.02,ENE,68,0.0,0.0,88,0.00,,,0.00,WUHU216HW,2013-04-17 05:27:00,
2013-04-17 01:32:00,56.3,52.7,30.03,North,0,2.4,2.4,88,0.00,,,0.00,WUHU216HW,2013-04-17 05:32:00,
2013-04-17 01:37:00,56.3,52.7,30.03,NNE,23,3.1,3.1,88,0.00,,,0.00,WUHU216HW,2013-04-17 05:37:00,
2013-04-17 01:42:00,56.1,52.5,30.04,NNE,23,0.0,3.1,88,0.00,,,0.00,WUHU216HW,2013-04-17 05:42:00,
2013-04-17 01:47:00,55.9,52.4,30.05,NNW,338,1.5,4.0,88,0.00,,,0.00,WUHU216HW,2013-04-17 05:47:00,
2013-04-17 01:52:00,55.7,52.2,30.06,NE,45,1.5,4.2,88,0.00,,,0.00,WUHU216HW,2013-04-17 05:52:00,
2013-04-17 01:57:00,55.5,52.0,30.05,North,0,1.7,4.2,88,0.00,,,0.00,WUHU216HW,2013-04-17 05:57:00,
2013-04-17 02:03:00,55.4,51.8,30.05,North,0,0.0,1.7,88,0.00,,,0.00,WUHU216HW,2013-04-17 06:03:00,
2013-04-17 02:08:00,55.2,51.6,30.03,NE,45,0.0,1.5,88,0.00,,,0.00,WUHU216HW,2013-04-17 06:08:00,
2013-04-17 02:13:00,55.2,51.6,30.03,NE,45,0.0,0.0,88,0.00,,,0.00,WUHU216HW,2013-04-17 06:13:00,
2013-04-17 02:18:00,55.0,51.5,30.03,ENE,68,0.0,0.0,88,0.00,,,0.00,WUHU216HW,2013-04-17 06:18:00,
2013-04-17 02:23:00,55.0,51.8,30.03,NE,45,0.0,2.2,89,0.00,,,0.00,WUHU216HW,2013-04-17 06:23:00,
2013-04-17 02:28:00,55.0,51.8,30.01,ESE,113,2.0,2.2,89,0.00,,,0.00,WUHU216HW,2013-04-17 06:28:00,
2013-04-17 02:33:00,54.8,51.6,30.04,West,270,1.7,2.0,89,0.00,,,0.00,WUHU216HW,2013-04-17 06:33:00,
2013-04-17 02:38:00,54.6,51.4,30.06,NNE,23,0.0,1.7,89,0.00,,,0.00,WUHU216HW,2013-04-17 06:38:00,
2013-04-17 02:43:00,54.6,51.4,30.05,NNE,23,0.0,1.7,89,0.00,,,0.00,WUHU216HW,2013-04-17 06:43:00,
2013-04-17 02:48:00,54.6,51.4,30.04,ENE,68,0.0,2.6,89,0.00,,,0.00,WUHU216HW,2013-04-17 06:48:00,
2013-04-17 02:53:00,54.6,51.4,30.04,NNE,23,1.1,2.6,89,0.00,,,0.00,WUHU216HW,2013-04-17 06:53:00,
2013-04-17 02:58:00,54.5,51.2,30.04,NNE,23,0.0,1.1,89,0.00,,,0.00,WUHU216HW,2013-04-17 06:58:00,
2013-04-17 03:03:00,54.3,51.1,30.03,SE,135,0.0,1.5,89,0.00,,,0.00,WUHU216HW,2013-04-17 07:03:00,
2013-04-17 03:08:00,54.3,51.1,30.03,ENE,68,0.0,1.5,89,0.00,,,0.00,WUHU216HW,2013-04-17 07:08:00,
2013-04-17 03:13:00,54.3,51.1,30.05,ENE,68,0.0,0.0,89,0.00,,,0.00,WUHU216HW,2013-04-17 07:13:00,
2013-04-17 03:18:00,54.3,51.1,30.04,NE,45,0.0,0.0,89,0.00,,,0.00,WUHU216HW,2013-04-17 07:18:00,
2013-04-17 03:23:00,54.3,51.1,30.02,ENE,68,0.0,0.6,89,0.00,,,0.00,WUHU216HW,2013-04-17 07:23:00,
2013-04-17 03:28:00,54.3,51.1,30.03,NW,315,0.0,0.6,89,0.00,,,0.00,WUHU216HW,2013-04-17 07:28:00,
2013-04-17 03:33:00,54.1,50.9,30.03,ENE,68,0.0,2.0,89,0.00,,,0.00,WUHU216HW,2013-04-17 07:33:00,
2013-04-17 03:38:00,54.1,51.2,30.04,East,90,0.0,2.0,90,0.00,,,0.00,WUHU216HW,2013-04-17 07:38:00,
2013-04-17 03:43:00,54.1,51.2,30.04,East,90,0.0,0.0,90,0.00,,,0.00,WUHU216HW,2013-04-17 07:43:00,
2013-04-17 03:48:00,54.1,51.2,30.05,North,0,1.1,1.1,90,0.00,,,0.00,WUHU216HW,2013-04-17 07:48:00,
2013-04-17 03:53:00,54.1,51.2,30.04,NNE,23,0.0,1.1,90,0.00,,,0.00,WUHU216HW,2013-04-17 07:53:00,
2013-04-17 03:56:00,54.1,51.2,30.05,NW,315,0.0,1.1,90,0.00,,,0.00,WUHU216HW,2013-04-17 07:56:00,
2013-04-17 04:04:00,54.1,51.2,30.03,SSE,158,0.0,1.5,90,0.02,,,0.03,WUHU216HW,2013-04-17 08:04:00,
2013-04-17 04:14:00,53.9,51.0,30.04,NE,45,0.0,0.0,90,0.02,,,0.03,WUHU216HW,2013-04-17 08:14:00,
2013-04-17 04:24:00,53.9,51.0,30.05,East,90,0.0,0.0,90,0.04,,,0.05,WUHU216HW,2013-04-17 08:24:00,
2013-04-17 04:34:00,53.9,51.0,30.05,NNE,23,0.0,0.0,90,0.04,,,0.05,WUHU216HW,2013-04-17 08:34:00,
2013-04-17 04:43:00,54.1,51.2,30.05,South,180,0.0,2.4,90,0.04,,,0.05,WUHU216HW,2013-04-17 08:43:00,
2013-04-17 04:53:00,54.1,51.2,30.06,WNW,293,0.0,2.6,90,0.10,,,0.10,WUHU216HW,2013-04-17 08:53:00,
2013-04-17 05:03:00,53.9,51.0,30.04,NW,315,0.0,4.9,90,0.10,,,0.12,WUHU216HW,2013-04-17 09:03:00,
2013-04-17 05:13:00,54.1,51.2,30.05,North,0,0.0,0.0,90,0.10,,,0.12,WUHU216HW,2013-04-17 09:13:00,
2013-04-17 05:23:00,54.1,51.2,30.05,NE,45,0.0,0.0,90,0.08,,,0.12,WUHU216HW,2013-04-17 09:23:00,
2013-04-17 05:33:00,54.3,51.4,30.04,NE,45,0.0,0.0,90,0.08,,,0.12,WUHU216HW,2013-04-17 09:33:00,
2013-04-17 05:43:00,54.5,51.6,30.04,NE,45,0.0,0.0,90,0.06,,,0.12,WUHU216HW,2013-04-17 09:43:00,
2013-04-17 05:53:00,54.6,51.8,30.02,ENE,68,0.0,0.0,90,0.02,,,0.12,WUHU216HW,2013-04-17 09:53:00,
2013-04-17 06:03:00,54.6,51.8,30.02,ENE,68,0.0,0.0,90,0.00,,,0.12,WUHU216HW,2013-04-17 10:03:00,
2013-04-17 06:12:00,54.8,51.9,30.02,ENE,68,0.0,0.0,90,0.00,,,0.12,WUHU216HW,2013-04-17 10:12:00,
2013-04-17 06:22:00,55.0,52.1,30.04,North,0,0.0,0.4,90,0.00,,,0.12,WUHU216HW,2013-04-17 10:22:00,
2013-04-17 06:32:00,55.0,52.4,30.04,NNE,23,0.0,2.4,91,0.00,,,0.12,WUHU216HW,2013-04-17 10:32:00,
2013-04-17 06:42:00,55.0,52.4,30.04,NNW,338,0.0,0.0,91,0.00,,,0.12,WUHU216HW,2013-04-17 10:42:00,
2013-04-17 06:52:00,54.8,52.2,30.05,NW,315,0.0,0.0,91,0.00,,,0.12,WUHU216HW,2013-04-17 10:52:00,
2013-04-17 07:02:00,54.8,52.2,30.05,North,0,0.0,0.0,91,0.00,,,0.12,WUHU216HW,2013-04-17 11:02:00,
2013-04-17 07:12:00,54.8,52.2,30.04,North,0,0.0,0.0,91,0.00,,,0.12,WUHU216HW,2013-04-17 11:12:00,
2013-04-17 07:27:00,55.0,52.4,30.04,NNW,338,0.0,0.0,91,0.00,,,0.12,WUHU216HW,2013-04-17 11:27:00,
2013-04-17 07:34:00,55.2,52.6,30.05,NNE,23,0.0,0.0,91,0.00,,,0.12,WUHU216HW,2013-04-17 11:34:00,
2013-04-17 07:39:00,55.2,52.6,30.05,NNE,23,0.0,0.0,91,0.00,,,0.12,WUHU216HW,2013-04-17 11:39:00,
2013-04-17 07:44:00,55.2,52.6,30.05,NNE,23,0.0,0.0,91,0.00,,,0.12,WUHU216HW,2013-04-17 11:44:00,
2013-04-17 07:49:00,55.2,52.6,30.05,NNE,23,0.0,0.0,91,0.00,,,0.12,WUHU216HW,2013-04-17 11:49:00,
2013-04-17 07:54:00,55.2,52.6,30.05,NNE,23,0.0,0.0,91,0.00,,,0.12,WUHU216HW,2013-04-17 11:54:00,
2013-04-17 07:59:00,55.4,52.8,30.04,NNE,23,0.0,0.0,91,0.00,,,0.12,WUHU216HW,2013-04-17 11:59:00,
2013-04-17 08:04:00,55.5,52.9,30.04,NNE,23,0.0,0.0,91,0.00,,,0.12,WUHU216HW,2013-04-17 12:04:00,
2013-04-17 08:09:00,55.5,52.9,30.04,NNE,23,0.0,0.0,91,0.00,,,0.12,WUHU216HW,2013-04-17 12:09:00,
2013-04-17 08:14:00,55.7,53.1,30.03,NNE,23,0.0,0.0,91,0.00,,,0.12,WUHU216HW,2013-04-17 12:14:00,
2013-04-17 08:19:00,55.7,53.1,30.04,NNE,23,0.0,0.0,91,0.00,,,0.12,WUHU216HW,2013-04-17 12:19:00,
2013-04-17 08:24:00,55.9,53.3,30.04,ENE,68,0.0,0.0,91,0.00,,,0.12,WUHU216HW,2013-04-17 12:24:00,
2013-04-17 08:29:00,55.9,53.3,30.04,NE,45,0.0,0.0,91,0.00,,,0.12,WUHU216HW,2013-04-17 12:29:00,
2013-04-17 08:34:00,56.1,53.5,30.04,NE,45,0.0,0.0,91,0.00,,,0.12,WUHU216HW,2013-04-17 12:34:00,
2013-04-17 08:39:00,56.1,53.5,30.05,NE,45,0.0,0.0,91,0.00,,,0.12,WUHU216HW,2013-04-17 12:39:00,
2013-04-17 08:44:00,56.3,53.7,30.05,NE,45,0.0,0.0,91,0.00,,,0.12,WUHU216HW,2013-04-17 12:44:00,
2013-04-17 08:49:00,56.3,53.7,30.05,NE,45,0.0,0.0,91,0.00,,,0.12,WUHU216HW,2013-04-17 12:49:00,
2013-04-17 08:54:00,56.4,53.8,30.05,NE,45,0.0,0.0,91,0.00,,,0.12,WUHU216HW,2013-04-17 12:54:00,
2013-04-17 08:59:00,56.4,53.8,30.05,NE,45,0.0,0.0,91,0.00,,,0.12,WUHU216HW,2013-04-17 12:59:00,
2013-04-17 09:04:00,56.4,53.8,30.04,NE,45,0.0,0.0,91,0.00,,,0.12,WUHU216HW,2013-04-17 13:04:00,
2013-04-17 09:09:00,56.4,53.8,30.04,NE,45,0.0,0.0,91,0.00,,,0.12,WUHU216HW,2013-04-17 13:09:00,
2013-04-17 09:14:00,56.6,54.0,30.04,ENE,68,0.0,0.0,91,0.00,,,0.12,WUHU216HW,2013-04-17 13:14:00,
2013-04-17 09:19:00,56.8,54.2,30.04,ENE,68,0.0,0.0,91,0.00,,,0.12,WUHU216HW,2013-04-17 13:19:00,
2013-04-17 09:24:00,56.8,54.2,30.04,ENE,68,0.0,0.0,91,0.00,,,0.12,WUHU216HW,2013-04-17 13:24:00,
2013-04-17 09:29:00,56.8,54.2,30.05,ENE,68,0.0,0.0,91,0.00,,,0.12,WUHU216HW,2013-04-17 13:29:00,
2013-04-17 09:34:00,56.8,54.2,30.05,NE,45,0.0,0.0,91,0.00,,,0.12,WUHU216HW,2013-04-17 13:34:00,
2013-04-17 09:39:00,56.8,54.2,30.05,NE,45,0.0,0.0,91,0.00,,,0.12,WUHU216HW,2013-04-17 13:39:00,
2013-04-17 09:44:00,56.8,54.2,30.05,NE,45,0.0,0.0,91,0.00,,,0.12,WUHU216HW,2013-04-17 13:44:00,
2013-04-17 09:49:00,56.8,54.2,30.05,NE,45,0.0,0.0,91,0.00,,,0.12,WUHU216HW,2013-04-17 13:49:00,
2013-04-17 09:54:00,57.0,54.4,30.05,ENE,68,0.0,0.0,91,0.00,,,0.12,WUHU216HW,2013-04-17 13:54:00,
2013-04-17 09:59:00,57.0,54.4,30.05,NE,45,0.0,0.0,91,0.00,,,0.12,WUHU216HW,2013-04-17 13:59:00,
2013-04-17 10:04:00,57.0,54.4,30.05,NE,45,0.0,0.0,91,0.00,,,0.12,WUHU216HW,2013-04-17 14:04:00,
2013-04-17 10:09:00,57.3,54.7,30.05,NE,45,0.0,0.0,91,0.00,,,0.12,WUHU216HW,2013-04-17 14:09:00,
2013-04-17 10:14:00,57.3,54.7,30.05,ENE,68,0.0,5.5,91,0.00,,,0.12,WUHU216HW,2013-04-17 14:14:00,
2013-04-17 10:19:00,57.3,54.7,30.05,ENE,68,0.0,5.5,91,0.00,,,0.12,WUHU216HW,2013-04-17 14:19:00,
2013-04-17 10:24:00,57.5,54.9,30.05,ENE,68,0.0,0.0,91,0.00,,,0.12,WUHU216HW,2013-04-17 14:24:00,
2013-04-17 10:29:00,57.7,55.1,30.05,ENE,68,0.2,0.8,91,0.00,,,0.12,WUHU216HW,2013-04-17 14:29:00,
2013-04-17 10:34:00,57.9,55.6,30.05,ENE,68,0.8,0.8,92,0.00,,,0.12,WUHU216HW,2013-04-17 14:34:00,
2013-04-17 10:39:00,58.1,55.7,30.05,NE,45,0.0,3.1,92,0.00,,,0.12,WUHU216HW,2013-04-17 14:39:00,
2013-04-17 10:44:00,58.2,55.9,30.05,ESE,113,0.4,3.1,92,0.00,,,0.12,WUHU216HW,2013-04-17 14:44:00,
2013-04-17 10:49:00,58.2,55.9,30.05,ENE,68,0.0,1.3,92,0.00,,,0.12,WUHU216HW,2013-04-17 14:49:00,
2013-04-17 10:54:00,58.4,56.1,30.05,ENE,68,0.0,1.3,92,0.00,,,0.12,WUHU216HW,2013-04-17 14:54:00,
2013-04-17 10:59:00,58.6,56.3,30.05,ENE,68,1.3,1.3,92,0.00,,,0.12,WUHU216HW,2013-04-17 14:59:00,
2013-04-17 11:04:00,58.8,56.5,30.05,ENE,68,0.0,1.7,92,0.00,,,0.12,WUHU216HW,2013-04-17 15:04:00,
2013-04-17 11:09:00,58.8,56.5,30.05,ENE,68,0.0,1.7,92,0.00,,,0.12,WUHU216HW,2013-04-17 15:09:00,
2013-04-17 11:14:00,58.8,56.5,30.05,ENE,68,0.0,0.0,92,0.00,,,0.12,WUHU216HW,2013-04-17 15:14:00,
2013-04-17 11:19:00,58.8,56.5,30.05,NE,45,1.1,1.1,92,0.00,,,0.12,WUHU216HW,2013-04-17 15:19:00,
2013-04-17 11:24:00,59.1,56.8,30.05,East,90,0.0,1.1,92,0.00,,,0.12,WUHU216HW,2013-04-17 15:24:00,
2013-04-17 11:29:00,59.3,57.0,30.05,NE,45,0.0,1.1,92,0.00,,,0.12,WUHU216HW,2013-04-17 15:29:00,
2013-04-17 11:34:00,59.5,57.2,30.04,East,90,0.0,2.2,92,0.00,,,0.12,WUHU216HW,2013-04-17 15:34:00,
2013-04-17 11:39:00,59.9,57.5,30.04,ESE,113,0.0,2.2,92,0.00,,,0.12,WUHU216HW,2013-04-17 15:39:00,
2013-04-17 11:44:00,60.0,57.7,30.03,East,90,0.0,1.3,92,0.00,,,0.12,WUHU216HW,2013-04-17 15:44:00,
2013-04-17 11:49:00,60.4,58.1,30.03,ENE,68,0.0,1.3,92,0.00,,,0.12,WUHU216HW,2013-04-17 15:49:00,
2013-04-17 11:54:00,60.4,58.1,30.04,ENE,68,0.0,0.0,92,0.00,,,0.12,WUHU216HW,2013-04-17 15:54:00,
2013-04-17 11:59:00,60.6,58.3,30.03,ENE,68,1.3,1.3,92,0.00,,,0.12,WUHU216HW,2013-04-17 15:59:00,
2013-04-17 12:04:00,60.8,58.4,30.03,East,90,0.0,1.3,92,0.00,,,0.12,WUHU216HW,2013-04-17 16:04:00,
2013-04-17 12:09:00,60.9,58.6,30.03,East,90,0.8,0.8,92,0.00,,,0.12,WUHU216HW,2013-04-17 16:09:00,
2013-04-17 12:14:00,61.1,58.8,30.03,ENE,68,0.0,1.5,92,0.00,,,0.12,WUHU216HW,2013-04-17 16:14:00,
2013-04-17 12:19:00,61.5,59.2,30.02,ESE,113,0.0,3.1,92,0.00,,,0.12,WUHU216HW,2013-04-17 16:19:00,
2013-04-17 12:24:00,61.5,58.9,30.02,ESE,113,0.0,3.1,91,0.00,,,0.12,WUHU216HW,2013-04-17 16:24:00,
2013-04-17 12:29:00,61.5,58.9,30.02,ESE,113,0.0,2.9,91,0.00,,,0.12,WUHU216HW,2013-04-17 16:29:00,
2013-04-17 12:34:00,61.7,59.1,30.02,ENE,68,1.7,3.5,91,0.00,,,0.12,WUHU216HW,2013-04-17 16:34:00,
2013-04-17 12:39:00,61.8,59.2,30.02,ESE,113,0.0,3.5,91,0.00,,,0.12,WUHU216HW,2013-04-17 16:39:00,
2013-04-17 12:44:00,61.8,59.2,30.02,ESE,113,0.0,1.7,91,0.00,,,0.12,WUHU216HW,2013-04-17 16:44:00,
2013-04-17 12:49:00,62.2,59.6,30.02,ENE,68,0.0,0.0,91,0.00,,,0.12,WUHU216HW,2013-04-17 16:49:00,
2013-04-17 12:54:00,62.4,59.8,30.01,ENE,68,0.0,0.0,91,0.00,,,0.12,WUHU216HW,2013-04-17 16:54:00,
2013-04-17 12:59:00,62.4,59.8,30.01,ENE,68,0.0,0.0,91,0.00,,,0.12,WUHU216HW,2013-04-17 16:59:00,
2013-04-17 13:04:00,62.7,60.4,30.01,ENE,68,0.0,0.0,91,0.00,,,0.12,WUHU216HW,2013-04-17 17:04:00,
2013-04-17 13:09:00,63.1,60.8,30.01,ESE,113,0.0,0.0,92,0.00,,,0.12,WUHU216HW,2013-04-17 17:09:00,
2013-04-17 13:14:00,63.1,60.5,30.01,ENE,68,0.0,0.0,91,0.00,,,0.12,WUHU216HW,2013-04-17 17:14:00,
2013-04-17 13:19:00,63.3,60.7,30.00,ESE,113,0.0,2.4,91,0.00,,,0.12,WUHU216HW,2013-04-17 17:19:00,
2013-04-17 13:24:00,63.6,61.0,30.00,ENE,68,0.0,2.4,91,0.00,,,0.12,WUHU216HW,2013-04-17 17:24:00,
2013-04-17 13:29:00,64.0,61.4,30.00,ENE,68,0.0,1.7,91,0.00,,,0.12,WUHU216HW,2013-04-17 17:29:00,
2013-04-17 13:34:00,64.5,61.9,30.00,ENE,68,0.0,2.4,91,0.00,,,0.12,WUHU216HW,2013-04-17 17:34:00,
2013-04-17 13:39:00,64.9,62.2,30.00,East,90,0.0,2.4,91,0.00,,,0.12,WUHU216HW,2013-04-17 17:39:00,
2013-04-17 13:44:00,65.3,62.6,29.99,ESE,113,0.0,0.0,91,0.00,,,0.12,WUHU216HW,2013-04-17 17:44:00,
2013-04-17 13:49:00,65.8,63.1,29.99,ENE,68,3.5,3.5,91,0.00,,,0.12,WUHU216HW,2013-04-17 17:49:00,
2013-04-17 13:54:00,66.0,62.9,29.99,ESE,113,0.0,3.5,90,0.00,,,0.12,WUHU216HW,2013-04-17 17:54:00,
2013-04-17 13:59:00,66.2,63.4,29.99,ESE,113,0.0,3.5,91,0.00,,,0.12,WUHU216HW,2013-04-17 17:59:00,
2013-04-17 14:04:00,66.9,64.1,29.99,SE,135,0.0,0.0,91,0.00,,,0.12,WUHU216HW,2013-04-17 18:04:00,
2013-04-17 14:09:00,67.6,64.8,29.98,ESE,113,3.1,3.1,91,0.00,,,0.12,WUHU216HW,2013-04-17 18:09:00,
2013-04-17 14:14:00,67.8,64.7,29.98,East,90,0.0,3.1,90,0.00,,,0.12,WUHU216HW,2013-04-17 18:14:00,
2013-04-17 14:19:00,68.5,65.3,29.97,ENE,68,0.0,3.1,90,0.00,,,0.12,WUHU216HW,2013-04-17 18:19:00,
2013-04-17 14:24:00,69.0,66.0,29.97,ESE,113,0.0,0.0,90,0.00,,,0.12,WUHU216HW,2013-04-17 18:24:00,
2013-04-17 14:29:00,69.8,66.7,29.97,ESE,113,0.2,0.2,90,0.00,,,0.12,WUHU216HW,2013-04-17 18:29:00,
2013-04-17 14:34:00,70.7,67.2,29.96,ESE,113,0.0,5.1,89,0.00,,,0.12,WUHU216HW,2013-04-17 18:34:00,
2013-04-17 14:39:00,71.2,67.8,29.96,SE,135,4.0,5.1,89,0.00,,,0.12,WUHU216HW,2013-04-17 18:39:00,
2013-04-17 14:44:00,71.4,67.6,29.95,SE,135,4.0,4.0,88,0.00,,,0.12,WUHU216HW,2013-04-17 18:44:00,
2013-04-17 14:49:00,72.1,68.3,29.95,ESE,113,0.0,4.0,88,0.00,,,0.12,WUHU216HW,2013-04-17 18:49:00,
2013-04-17 14:54:00,72.3,68.5,29.95,ENE,68,0.2,3.3,88,0.00,,,0.12,WUHU216HW,2013-04-17 18:54:00,
2013-04-17 14:59:00,72.6,68.9,29.94,ENE,68,0.0,3.3,88,0.00,,,0.12,WUHU216HW,2013-04-17 18:59:00,
2013-04-17 15:04:00,73.2,69.1,29.94,ENE,68,0.0,5.5,87,0.00,,,0.12,WUHU216HW,2013-04-17 19:04:00,
2013-04-17 15:09:00,73.5,69.4,29.94,SE,135,1.3,5.5,87,0.00,,,0.12,WUHU216HW,2013-04-17 19:09:00,
2013-04-17 15:14:00,73.9,69.8,29.93,ESE,113,4.4,4.4,87,0.00,,,0.12,WUHU216HW,2013-04-17 19:14:00,
2013-04-17 15:19:00,74.4,70.0,29.93,ENE,68,0.2,4.4,86,0.00,,,0.12,WUHU216HW,2013-04-17 19:19:00,
2013-04-17 15:24:00,74.4,69.7,29.93,ESE,113,5.5,5.5,85,0.00,,,0.12,WUHU216HW,2013-04-17 19:24:00,
2013-04-17 15:29:00,74.8,70.0,29.93,ENE,68,0.0,5.5,85,0.00,,,0.12,WUHU216HW,2013-04-17 19:29:00,
2013-04-17 15:34:00,75.3,70.5,29.93,ENE,68,4.2,6.4,85,0.00,,,0.12,WUHU216HW,2013-04-17 19:34:00,
2013-04-17 15:39:00,75.5,70.4,29.93,ENE,68,0.0,6.4,84,0.00,,,0.12,WUHU216HW,2013-04-17 19:39:00,
2013-04-17 15:44:00,75.9,70.7,29.92,ESE,113,0.0,4.2,84,0.00,,,0.12,WUHU216HW,2013-04-17 19:44:00,
2013-04-17 15:49:00,75.9,70.7,29.92,East,90,2.4,4.2,84,0.00,,,0.12,WUHU216HW,2013-04-17 19:49:00,
2013-04-17 15:54:00,76.1,70.5,29.91,SE,135,0.0,4.2,83,0.00,,,0.12,WUHU216HW,2013-04-17 19:54:00,
2013-04-17 15:59:00,76.1,70.5,29.91,East,90,6.2,6.2,83,0.00,,,0.12,WUHU216HW,2013-04-17 19:59:00,
2013-04-17 16:04:00,76.2,70.3,29.90,ESE,113,2.4,6.2,82,0.00,,,0.12,WUHU216HW,2013-04-17 20:04:00,
2013-04-17 16:09:00,76.2,70.3,29.90,ENE,68,4.9,4.9,82,0.00,,,0.12,WUHU216HW,2013-04-17 20:09:00,
2013-04-17 16:14:00,76.4,70.5,29.90,ENE,68,0.0,4.9,82,0.00,,,0.12,WUHU216HW,2013-04-17 20:14:00,
2013-04-17 16:19:00,76.2,70.3,29.90,ESE,113,0.0,4.0,82,0.00,,,0.12,WUHU216HW,2013-04-17 20:19:00,
2013-04-17 16:24:00,76.1,70.2,29.90,ENE,68,3.8,4.0,82,0.00,,,0.12,WUHU216HW,2013-04-17 20:24:00,
2013-04-17 16:29:00,75.9,70.0,29.90,East,90,3.5,3.8,82,0.00,,,0.12,WUHU216HW,2013-04-17 20:29:00,
2013-04-17 16:34:00,75.9,70.0,29.89,East,90,6.2,6.2,82,0.00,,,0.12,WUHU216HW,2013-04-17 20:34:00,
2013-04-17 16:39:00,75.9,70.0,29.89,ESE,113,0.0,6.2,82,0.00,,,0.12,WUHU216HW,2013-04-17 20:39:00,
2013-04-17 16:44:00,75.9,70.0,29.89,SE,135,0.0,6.2,82,0.00,,,0.12,WUHU216HW,2013-04-17 20:44:00,
2013-04-17 16:49:00,76.4,70.5,29.89,NE,45,4.9,4.9,82,0.00,,,0.12,WUHU216HW,2013-04-17 20:49:00,
2013-04-17 16:54:00,76.8,70.5,29.89,NE,45,6.0,6.0,81,0.00,,,0.12,WUHU216HW,2013-04-17 20:54:00,
2013-04-17 16:59:00,77.1,70.5,29.88,ESE,113,3.8,6.0,80,0.00,,,0.12,WUHU216HW,2013-04-17 20:59:00,
2013-04-17 17:04:00,77.3,70.7,29.89,SE,135,4.6,4.9,80,0.00,,,0.12,WUHU216HW,2013-04-17 21:04:00,
2013-04-17 17:09:00,77.0,69.9,29.90,ESE,113,5.8,17.6,79,0.00,,,0.12,WUHU216HW,2013-04-17 21:09:00,
2013-04-17 17:14:00,76.2,68.9,29.90,SE,135,0.0,17.6,78,0.00,,,0.12,WUHU216HW,2013-04-17 21:14:00,
2013-04-17 17:19:00,75.0,67.3,29.90,East,90,3.3,7.1,77,0.00,,,0.12,WUHU216HW,2013-04-17 21:19:00,
2013-04-17 17:24:00,74.1,66.0,29.87,SE,135,0.0,7.1,76,0.00,,,0.12,WUHU216HW,2013-04-17 21:24:00,
2013-04-17 17:29:00,73.4,65.7,29.88,SSE,158,6.2,6.2,77,0.00,,,0.12,WUHU216HW,2013-04-17 21:29:00,
2013-04-17 17:34:00,72.6,65.4,29.88,SSE,158,0.2,6.2,78,0.00,,,0.12,WUHU216HW,2013-04-17 21:34:00,
2013-04-17 17:39:00,72.1,65.2,29.88,SE,135,3.1,3.1,79,0.00,,,0.12,WUHU216HW,2013-04-17 21:39:00,
2013-04-17 17:44:00,71.4,64.5,29.90,South,180,0.0,3.5,79,0.00,,,0.12,WUHU216HW,2013-04-17 21:44:00,
2013-04-17 17:49:00,70.8,64.7,29.89,ESE,113,0.0,3.5,81,0.02,,,0.12,WUHU216HW,2013-04-17 21:49:00,
2013-04-17 17:54:00,70.7,64.9,29.88,SSE,158,1.7,1.7,82,0.02,,,0.15,WUHU216HW,2013-04-17 21:54:00,
2013-04-17 17:59:00,70.7,65.2,29.89,SSE,158,0.0,1.7,83,0.04,,,0.17,WUHU216HW,2013-04-17 21:59:00,
2013-04-17 18:04:00,70.5,65.0,29.90,SE,135,3.8,3.8,83,0.04,,,0.17,WUHU216HW,2013-04-17 22:04:00,
2013-04-17 18:09:00,70.3,64.8,29.89,SE,135,0.0,3.8,83,0.04,,,0.17,WUHU216HW,2013-04-17 22:09:00,
2013-04-17 18:14:00,70.1,64.7,29.88,ENE,68,5.1,5.1,83,0.04,,,0.17,WUHU216HW,2013-04-17 22:14:00,
2013-04-17 18:19:00,69.9,64.8,29.88,South,180,0.0,5.1,84,0.04,,,0.17,WUHU216HW,2013-04-17 22:19:00,
2013-04-17 18:24:00,69.8,64.6,29.88,ESE,113,5.8,5.8,84,0.04,,,0.17,WUHU216HW,2013-04-17 22:24:00,
2013-04-17 18:30:00,69.6,64.5,29.88,ESE,113,5.3,5.8,84,0.04,,,0.17,WUHU216HW,2013-04-17 22:30:00,
2013-04-17 18:35:00,69.4,64.3,29.88,ESE,113,0.2,5.3,84,0.04,,,0.17,WUHU216HW,2013-04-17 22:35:00,
2013-04-17 18:40:00,69.2,64.1,29.89,SSE,158,0.0,0.2,84,0.04,,,0.17,WUHU216HW,2013-04-17 22:40:00,
2013-04-17 18:45:00,69.0,64.0,29.89,SE,135,0.0,0.2,84,0.04,,,0.17,WUHU216HW,2013-04-17 22:45:00,
2013-04-17 18:50:00,68.7,63.6,29.88,ENE,68,0.0,7.8,84,0.02,,,0.17,WUHU216HW,2013-04-17 22:50:00,
2013-04-17 18:55:00,68.7,63.6,29.89,SE,135,0.6,7.8,84,0.02,,,0.17,WUHU216HW,2013-04-17 22:55:00,
2013-04-17 19:00:00,68.5,63.5,29.89,South,180,1.3,1.3,84,0.00,,,0.17,WUHU216HW,2013-04-17 23:00:00,
2013-04-17 19:05:00,68.3,63.3,29.88,East,90,2.4,2.4,84,0.00,,,0.17,WUHU216HW,2013-04-17 23:05:00,
2013-04-17 19:10:00,68.1,63.4,29.88,SE,135,4.9,4.9,85,0.00,,,0.17,WUHU216HW,2013-04-17 23:10:00,
2013-04-17 19:15:00,68.1,63.1,29.88,NNE,23,0.0,4.9,84,0.00,,,0.17,WUHU216HW,2013-04-17 23:15:00,
2013-04-17 19:20:00,68.1,63.4,29.87,ENE,68,0.0,5.3,85,0.00,,,0.17,WUHU216HW,2013-04-17 23:20:00,
2013-04-17 19:25:00,68.0,63.3,29.87,SE,135,3.1,5.3,85,0.00,,,0.17,WUHU216HW,2013-04-17 23:25:00,
2013-04-17 19:30:00,67.8,63.1,29.86,ESE,113,0.0,3.1,85,0.00,,,0.17,WUHU216HW,2013-04-17 23:30:00,
2013-04-17 19:35:00,68.1,63.4,29.86,SSE,158,4.9,4.9,85,0.00,,,0.17,WUHU216HW,2013-04-17 23:35:00,
2013-04-17 19:40:00,68.0,63.3,29.85,SE,135,0.0,4.9,85,0.00,,,0.17,WUHU216HW,2013-04-17 23:40:00,
2013-04-17 19:45:00,68.0,63.3,29.85,ENE,68,0.0,4.9,85,0.00,,,0.17,WUHU216HW,2013-04-17 23:45:00,
2013-04-17 19:50:00,68.1,63.4,29.85,East,90,0.0,1.5,85,0.00,,,0.17,WUHU216HW,2013-04-17 23:50:00,
2013-04-17 19:55:00,67.8,63.1,29.85,SE,135,0.0,1.5,85,0.00,,,0.17,WUHU216HW,2013-04-17 23:55:00,
2013-04-17 20:00:00,67.8,63.1,29.85,ESE,113,0.0,0.2,85,0.00,,,0.17,WUHU216HW,2013-04-18 00:00:00,
2013-04-17 20:05:00,67.8,63.1,29.85,SE,135,0.0,0.0,85,0.00,,,0.17,WUHU216HW,2013-04-18 00:05:00,
2013-04-17 20:10:00,67.8,63.1,29.84,East,90,0.0,0.0,85,0.00,,,0.17,WUHU216HW,2013-04-18 00:10:00,
2013-04-17 20:15:00,67.8,63.1,29.83,ESE,113,0.0,0.0,85,0.00,,,0.17,WUHU216HW,2013-04-18 00:15:00,
2013-04-17 20:20:00,67.8,63.1,29.83,East,90,0.0,0.0,85,0.00,,,0.17,WUHU216HW,2013-04-18 00:20:00,
2013-04-17 20:25:00,67.6,62.9,29.83,East,90,0.0,0.6,85,0.00,,,0.17,WUHU216HW,2013-04-18 00:25:00,
2013-04-17 20:30:00,67.6,62.9,29.83,ENE,68,0.0,0.6,85,0.00,,,0.17,WUHU216HW,2013-04-18 00:30:00,
2013-04-17 20:35:00,67.2,62.6,29.83,East,90,0.0,0.0,85,0.00,,,0.17,WUHU216HW,2013-04-18 00:35:00,
2013-04-17 20:40:00,67.2,62.6,29.83,ENE,68,0.0,0.0,85,0.00,,,0.17,WUHU216HW,2013-04-18 00:40:00,
2013-04-17 20:45:00,67.1,62.4,29.83,ENE,68,0.0,0.0,85,0.00,,,0.17,WUHU216HW,2013-04-18 00:45:00,
2013-04-17 20:50:00,66.9,62.2,29.83,ENE,68,0.0,0.0,85,0.00,,,0.17,WUHU216HW,2013-04-18 00:50:00,
2013-04-17 20:55:00,66.7,62.0,29.83,ENE,68,0.0,0.0,85,0.00,,,0.17,WUHU216HW,2013-04-18 00:55:00,
2013-04-17 21:00:00,66.5,61.8,29.83,ENE,68,0.0,0.0,85,0.00,,,0.17,WUHU216HW,2013-04-18 01:00:00,
2013-04-17 21:05:00,66.5,61.8,29.83,ENE,68,0.0,0.0,85,0.00,,,0.17,WUHU216HW,2013-04-18 01:05:00,
2013-04-17 21:10:00,66.2,61.5,29.83,ENE,68,0.0,0.0,85,0.00,,,0.17,WUHU216HW,2013-04-18 01:10:00,
2013-04-17 21:15:00,66.0,61.3,29.83,ENE,68,0.0,0.0,85,0.00,,,0.17,WUHU216HW,2013-04-18 01:15:00,
2013-04-17 21:20:00,66.0,61.3,29.83,East,90,0.0,0.0,85,0.00,,,0.17,WUHU216HW,2013-04-18 01:20:00,
2013-04-17 21:25:00,65.6,60.9,29.83,East,90,0.0,0.0,85,0.00,,,0.17,WUHU216HW,2013-04-18 01:25:00,
2013-04-17 21:30:00,65.4,60.8,29.83,East,90,0.0,0.0,85,0.00,,,0.17,WUHU216HW,2013-04-18 01:30:00,
2013-04-17 21:35:00,65.3,60.6,29.83,East,90,0.0,0.0,85,0.00,,,0.17,WUHU216HW,2013-04-18 01:35:00,
2013-04-17 21:40:00,65.1,60.4,29.82,East,90,0.0,0.0,85,0.00,,,0.17,WUHU216HW,2013-04-18 01:40:00,
2013-04-17 21:45:00,65.1,60.8,29.82,ENE,68,0.0,0.0,86,0.00,,,0.17,WUHU216HW,2013-04-18 01:45:00,
2013-04-17 21:50:00,65.1,60.8,29.83,East,90,0.0,0.0,86,0.00,,,0.17,WUHU216HW,2013-04-18 01:50:00,
2013-04-17 21:55:00,64.9,60.6,29.82,ESE,113,0.0,0.0,86,0.00,,,0.17,WUHU216HW,2013-04-18 01:55:00,
2013-04-17 22:00:00,64.9,60.6,29.82,ENE,68,0.0,0.0,86,0.00,,,0.17,WUHU216HW,2013-04-18 02:00:00,
2013-04-17 22:05:00,64.9,60.6,29.82,East,90,0.0,0.0,86,0.00,,,0.17,WUHU216HW,2013-04-18 02:05:00,
2013-04-17 22:10:00,64.7,60.4,29.83,ENE,68,0.0,0.0,86,0.00,,,0.17,WUHU216HW,2013-04-18 02:10:00,
2013-04-17 22:15:00,64.5,60.3,29.84,ENE,68,0.0,0.0,86,0.00,,,0.17,WUHU216HW,2013-04-18 02:15:00,
2013-04-17 22:20:00,64.5,60.3,29.84,ENE,68,0.0,0.0,86,0.00,,,0.17,WUHU216HW,2013-04-18 02:20:00,
2013-04-17 22:25:00,64.2,59.9,29.84,ENE,68,0.0,0.0,86,0.00,,,0.17,WUHU216HW,2013-04-18 02:25:00,
2013-04-17 22:30:00,64.2,59.9,29.84,ENE,68,0.0,0.0,86,0.00,,,0.17,WUHU216HW,2013-04-18 02:30:00,
2013-04-17 22:35:00,64.2,59.9,29.84,ENE,68,0.0,0.0,86,0.00,,,0.17,WUHU216HW,2013-04-18 02:35:00,
2013-04-17 22:40:00,64.0,59.7,29.83,ENE,68,0.0,0.0,86,0.00,,,0.17,WUHU216HW,2013-04-18 02:40:00,
2013-04-17 22:45:00,63.8,59.6,29.83,ENE,68,0.0,0.0,86,0.00,,,0.17,WUHU216HW,2013-04-18 02:45:00,
2013-04-17 22:50:00,63.6,59.4,29.83,ENE,68,0.0,0.0,86,0.00,,,0.17,WUHU216HW,2013-04-18 02:50:00,
2013-04-17 22:55:00,63.5,59.2,29.83,ENE,68,0.0,0.0,86,0.00,,,0.17,WUHU216HW,2013-04-18 02:55:00,
2013-04-17 23:00:00,63.3,59.0,29.82,ENE,68,0.0,0.0,86,0.00,,,0.17,WUHU216HW,2013-04-18 03:00:00,
2013-04-17 23:05:00,63.3,59.0,29.82,ENE,68,0.0,0.0,86,0.00,,,0.17,WUHU216HW,2013-04-18 03:05:00,
2013-04-17 23:10:00,63.1,59.2,29.82,ENE,68,0.0,0.0,87,0.00,,,0.17,WUHU216HW,2013-04-18 03:10:00,
2013-04-17 23:15:00,62.9,59.0,29.82,ENE,68,0.0,0.0,87,0.00,,,0.17,WUHU216HW,2013-04-18 03:15:00,
2013-04-17 23:20:00,62.7,58.8,29.81,ENE,68,0.0,0.0,87,0.00,,,0.17,WUHU216HW,2013-04-18 03:20:00,
2013-04-17 23:25:00,62.6,58.6,29.81,ENE,68,0.0,0.0,87,0.00,,,0.17,WUHU216HW,2013-04-18 03:25:00,
2013-04-17 23:30:00,62.4,58.5,29.81,ENE,68,0.0,0.0,87,0.00,,,0.17,WUHU216HW,2013-04-18 03:30:00,
2013-04-17 23:35:00,62.4,58.5,29.81,ENE,68,0.0,0.0,87,0.00,,,0.17,WUHU216HW,2013-04-18 03:35:00,
2013-04-17 23:40:00,62.4,58.5,29.80,ENE,68,0.0,0.0,87,0.00,,,0.17,WUHU216HW,2013-04-18 03:40:00,
2013-04-17 23:45:00,62.2,58.3,29.80,ENE,68,0.0,0.0,87,0.00,,,0.17,WUHU216HW,2013-04-18 03:45:00,
2013-04-17 23:50:00,62.0,58.1,29.80,ENE,68,0.0,0.0,87,0.00,,,0.17,WUHU216HW,2013-04-18 03:50:00,
2013-04-17 23:55:00,61.8,57.9,29.80,ENE,68,0.0,0.0,87,0.00,,,0.17,WUHU216HW,2013-04-18 03:55:00,